| time (UTC) | temp F | wind direction | speed MPH | gust MPH | rain 1hr in | rain 24hr in | rain mn in | humidity % | barometer mb |
| 20260510121150 | 52 | 132 | 1.0 | 1.0 | 0.00 | 0.00 | 0.00 | 96 | 1017.2 |
| 20260510120647 | 52 | 132 | 1.0 | 1.0 | 0.00 | 0.00 | 0.00 | 96 | 1017.2 |
| 20260510120143 | 52 | 151 | 1.0 | 1.0 | 0.00 | 0.00 | 0.00 | 96 | 1017.3 |
| 20260510115639 | 52 | 153 | 0.0 | 0.0 | 0.00 | 0.00 | 0.00 | 96 | 1017.2 |
| 20260510115138 | 51 | 159 | 1.0 | 3.0 | 0.00 | 0.00 | 0.00 | 96 | 1016.9 |
| 20260510114633 | 51 | 159 | 1.0 | 3.0 | 0.00 | 0.00 | 0.00 | 96 | 1016.9 |
| 20260510114129 | 52 | 114 | 1.0 | 1.0 | 0.00 | 0.00 | 0.00 | 96 | 1017.1 |
| 20260510113625 | 52 | 175 | 0.0 | 0.0 | 0.00 | 0.00 | 0.00 | 96 | 1016.9 |
| 20260510113122 | 52 | 113 | 1.0 | 2.0 | 0.00 | 0.00 | 0.00 | 96 | 1016.8 |
| 20260510112619 | 52 | 164 | 0.0 | 0.0 | 0.00 | 0.00 | 0.00 | 96 | 1016.7 |
| 20260510112115 | 52 | 172 | 1.0 | 2.0 | 0.00 | 0.00 | 0.00 | 96 | 1016.6 |
| 20260510111612 | 51 | 153 | 1.0 | 1.0 | 0.00 | 0.00 | 0.00 | 96 | 1016.5 |
| 20260510111108 | 51 | 164 | 1.0 | 1.0 | 0.00 | 0.00 | 0.00 | 96 | 1016.5 |
| 20260510110604 | 51 | 159 | 0.0 | 1.0 | 0.00 | 0.00 | 0.00 | 96 | 1016.7 |
| 20260510110100 | 52 | 158 | 0.0 | 1.0 | 0.00 | 0.00 | 0.00 | 96 | 1016.8 |
| 20260510105551 | 52 | 116 | 1.0 | 2.0 | 0.00 | 0.00 | 0.00 | 96 | 1016.7 |
| 20260510105046 | 51 | 111 | 0.0 | 0.0 | 0.00 | 0.00 | 0.00 | 96 | 1016.7 |
| 20260510104543 | 51 | 145 | 0.0 | 1.0 | 0.00 | 0.00 | 0.00 | 96 | 1016.5 |
| 20260510104039 | 51 | 125 | 0.0 | 0.0 | 0.00 | 0.00 | 0.00 | 96 | 1016.7 |
| 20260510103536 | 52 | 171 | 0.0 | 0.0 | 0.00 | 0.00 | 0.00 | 96 | 1016.8 |
| 20260510103032 | 52 | 171 | 0.0 | 0.0 | 0.00 | 0.00 | 0.00 | 96 | 1016.8 |
| 20260510102528 | 51 | 164 | 0.0 | 0.0 | 0.00 | 0.00 | 0.00 | 96 | 1016.6 |
| 20260510102024 | 51 | 164 | 0.0 | 0.0 | 0.00 | 0.00 | 0.00 | 96 | 1016.6 |
| 20260510101522 | 51 | 150 | 1.0 | 1.0 | 0.00 | 0.00 | 0.00 | 96 | 1016.4 |
| 20260510101021 | 51 | 166 | 0.0 | 0.0 | 0.00 | 0.00 | 0.00 | 96 | 1016.6 |
| 20260510100516 | 51 | 166 | 0.0 | 0.0 | 0.00 | 0.00 | 0.00 | 96 | 1016.6 |
| 20260510100013 | 51 | 172 | 0.0 | 0.0 | 0.00 | 0.00 | 0.00 | 96 | 1016.7 |
| 20260510092852 | 51 | 157 | 0.0 | 0.0 | 0.00 | 0.00 | 0.00 | 96 | 1017.0 |
| 20260510092349 | 51 | 157 | 0.0 | 0.0 | 0.00 | 0.00 | 0.00 | 96 | 1017.0 |
| 20260510091844 | 51 | 157 | 0.0 | 0.0 | 0.00 | 0.00 | 0.00 | 96 | 1017.1 |
| 20260510091341 | 51 | 157 | 0.0 | 0.0 | 0.00 | 0.00 | 0.00 | 96 | 1017.1 |
| 20260510090838 | 51 | 163 | 0.0 | 1.0 | 0.00 | 0.00 | 0.00 | 96 | 1017.0 |
| 20260510090334 | 51 | 163 | 0.0 | 1.0 | 0.00 | 0.00 | 0.00 | 96 | 1017.0 |
| 20260510085830 | 51 | 11 | 2.0 | 2.0 | 0.00 | 0.00 | 0.00 | 96 | 1017.0 |
| 20260510085324 | 51 | 11 | 2.0 | 2.0 | 0.00 | 0.00 | 0.00 | 96 | 1017.0 |
| 20260510084820 | 51 | 187 | 0.0 | 1.0 | 0.00 | 0.00 | 0.00 | 96 | 1016.9 |
| 20260510084318 | 51 | 187 | 0.0 | 1.0 | 0.00 | 0.00 | 0.00 | 96 | 1016.9 |
| 20260510083815 | 51 | 191 | 2.0 | 2.0 | 0.00 | 0.00 | 0.00 | 96 | 1017.2 |
| 20260510083311 | 51 | 303 | 1.0 | 1.0 | 0.00 | 0.00 | 0.00 | 96 | 1016.9 |
| 20260510082806 | 51 | 77 | 1.0 | 1.0 | 0.00 | 0.00 | 0.00 | 96 | 1016.9 |
| 20260510082306 | 52 | 230 | 1.0 | 1.0 | 0.00 | 0.00 | 0.00 | 96 | 1016.6 |
| 20260510081803 | 52 | 87 | 2.0 | 3.0 | 0.00 | 0.00 | 0.00 | 96 | 1016.8 |
| 20260510081259 | 52 | 170 | 0.0 | 1.0 | 0.00 | 0.00 | 0.00 | 96 | 1016.4 |
| 20260510080755 | 52 | 160 | 0.0 | 0.0 | 0.00 | 0.00 | 0.00 | 96 | 1016.1 |
| 20260510080250 | 52 | 142 | 0.0 | 0.0 | 0.00 | 0.00 | 0.00 | 96 | 1016.0 |
| 20260510075747 | 52 | 142 | 0.0 | 0.0 | 0.00 | 0.00 | 0.00 | 96 | 1016.0 |
| 20260510075245 | 52 | 149 | 1.0 | 1.0 | 0.00 | 0.00 | 0.00 | 96 | 1015.8 |
| 20260510074741 | 52 | 151 | 1.0 | 1.0 | 0.00 | 0.00 | 0.00 | 96 | 1016.0 |
| 20260510074238 | 52 | 182 | 0.0 | 0.0 | 0.00 | 0.00 | 0.00 | 96 | 1016.1 |
| 20260510073733 | 52 | 148 | 0.0 | 0.0 | 0.00 | 0.00 | 0.00 | 96 | 1016.2 |
| 20260510073229 | 52 | 145 | 0.0 | 0.0 | 0.00 | 0.00 | 0.00 | 96 | 1016.1 |
| 20260510031607 | 52 | 157 | 0.0 | 0.0 | 0.00 | 0.41 | 0.41 | 95 | 1015.7 |
| 20260510031104 | 52 | 157 | 0.0 | 0.0 | 0.00 | 0.41 | 0.41 | 95 | 1015.7 |
| 20260510030559 | 52 | 156 | 0.0 | 0.0 | 0.00 | 0.41 | 0.41 | 95 | 1015.7 |
| 20260510030057 | 52 | 157 | 0.0 | 0.0 | 0.00 | 0.41 | 0.41 | 95 | 1015.6 |
| 20260510025548 | 52 | 156 | 0.0 | 0.0 | 0.00 | 0.41 | 0.41 | 95 | 1015.6 |
| 20260510025046 | 51 | 154 | 0.0 | 1.0 | 0.00 | 0.41 | 0.41 | 95 | 1015.6 |
| 20260510024542 | 51 | 154 | 0.0 | 0.0 | 0.00 | 0.41 | 0.41 | 95 | 1015.7 |
| 20260510024038 | 51 | 154 | 0.0 | 0.0 | 0.00 | 0.41 | 0.41 | 95 | 1015.8 |
| 20260510023535 | 51 | 154 | 0.0 | 0.0 | 0.00 | 0.41 | 0.41 | 95 | 1015.8 |
| 20260510023032 | 51 | 154 | 0.0 | 0.0 | 0.00 | 0.41 | 0.41 | 95 | 1015.8 |
| 20260510022531 | 51 | 154 | 0.0 | 0.0 | 0.00 | 0.41 | 0.41 | 95 | 1016.1 |
| 20260510022026 | 50 | 154 | 0.0 | 0.0 | 0.00 | 0.41 | 0.41 | 95 | 1015.8 |
| 20260510021523 | 51 | 154 | 0.0 | 0.0 | 0.00 | 0.41 | 0.41 | 95 | 1015.8 |
| 20260510021021 | 50 | 154 | 0.0 | 0.0 | 0.00 | 0.41 | 0.41 | 95 | 1016.0 |
| 20260510020520 | 50 | 155 | 0.0 | 0.0 | 0.00 | 0.41 | 0.41 | 95 | 1015.8 |
| 20260510020016 | 50 | 154 | 0.0 | 0.0 | 0.00 | 0.41 | 0.41 | 95 | 1015.6 |
| 20260510015512 | 50 | 154 | 0.0 | 0.0 | 0.00 | 0.41 | 0.41 | 95 | 1015.7 |
| 20260510015008 | 51 | 154 | 0.0 | 0.0 | 0.00 | 0.41 | 0.41 | 95 | 1015.8 |
| 20260510014505 | 51 | 155 | 0.0 | 0.0 | 0.00 | 0.41 | 0.41 | 95 | 1015.7 |
| 20260510014001 | 51 | 155 | 0.0 | 0.0 | 0.00 | 0.41 | 0.41 | 95 | 1015.7 |
| 20260510013456 | 51 | 154 | 0.0 | 0.0 | 0.00 | 0.41 | 0.41 | 95 | 1015.6 |
| 20260510012952 | 51 | 155 | 0.0 | 0.0 | 0.00 | 0.41 | 0.41 | 95 | 1015.6 |
| 20260510012447 | 52 | 154 | 0.0 | 0.0 | 0.00 | 0.41 | 0.41 | 95 | 1015.5 |
| 20260510011942 | 51 | 154 | 0.0 | 0.0 | 0.00 | 0.41 | 0.41 | 95 | 1015.3 |
| 20260510011437 | 52 | 154 | 0.0 | 0.0 | 0.00 | 0.41 | 0.41 | 95 | 1015.1 |
| 20260510010933 | 52 | 155 | 0.0 | 0.0 | 0.00 | 0.41 | 0.41 | 95 | 1015.2 |
| 20260510010431 | 52 | 155 | 0.0 | 0.0 | 0.00 | 0.41 | 0.41 | 95 | 1015.1 |
| 20260510005928 | 52 | 155 | 0.0 | 0.0 | 0.00 | 0.41 | 0.41 | 95 | 1015.1 |
| 20260510005423 | 53 | 155 | 0.0 | 0.0 | 0.00 | 0.41 | 0.41 | 95 | 1015.2 |
| 20260510004921 | 53 | 155 | 0.0 | 0.0 | 0.00 | 0.41 | 0.41 | 95 | 1015.3 |
| 20260510004418 | 53 | 155 | 0.0 | 0.0 | 0.00 | 0.41 | 0.41 | 95 | 1015.1 |
| 20260510003916 | 53 | 154 | 0.0 | 0.0 | 0.00 | 0.41 | 0.41 | 95 | 1015.2 |
| 20260510003413 | 54 | 155 | 0.0 | 0.0 | 0.00 | 0.41 | 0.41 | 95 | 1015.0 |
| 20260510002912 | 54 | 154 | 0.0 | 0.0 | 0.00 | 0.41 | 0.41 | 95 | 1015.2 |
| 20260510002409 | 54 | 162 | 0.0 | 0.0 | 0.00 | 0.41 | 0.41 | 94 | 1015.1 |
| 20260510001906 | 54 | 147 | 0.0 | 1.0 | 0.00 | 0.41 | 0.41 | 94 | 1015.2 |
| 20260510001403 | 54 | 154 | 0.0 | 0.0 | 0.00 | 0.41 | 0.41 | 94 | 1015.3 |
| 20260510000900 | 55 | 171 | 0.0 | 0.0 | 0.00 | 0.41 | 0.41 | 94 | 1015.2 |
| 20260510000357 | 55 | 119 | 0.0 | 1.0 | 0.00 | 0.41 | 0.41 | 94 | 1015.1 |
| 20260509235853 | 55 | 143 | 0.0 | 0.0 | 0.00 | 0.41 | 0.41 | 94 | 1014.9 |
| 20260509235350 | 55 | 148 | 2.0 | 3.0 | 0.00 | 0.41 | 0.41 | 94 | 1015.0 |
| 20260509234846 | 55 | 164 | 1.0 | 1.0 | 0.00 | 0.41 | 0.41 | 94 | 1015.0 |
| 20260509234343 | 55 | 168 | 0.0 | 1.0 | 0.00 | 0.41 | 0.41 | 94 | 1015.0 |
| 20260509233842 | 55 | 146 | 2.0 | 2.0 | 0.00 | 0.41 | 0.41 | 94 | 1015.0 |
| 20260509233339 | 55 | 185 | 0.0 | 0.0 | 0.00 | 0.41 | 0.41 | 94 | 1015.2 |
| 20260509232834 | 55 | 187 | 0.0 | 0.0 | 0.00 | 0.41 | 0.41 | 94 | 1015.0 |
| 20260509232332 | 55 | 144 | 0.0 | 0.0 | 0.00 | 0.41 | 0.41 | 94 | 1015.2 |
| 20260509231828 | 55 | 261 | 0.0 | 0.0 | 0.00 | 0.41 | 0.41 | 94 | 1015.4 |
| 20260509231325 | 55 | 152 | 0.0 | 0.0 | 0.00 | 0.41 | 0.41 | 94 | 1015.2 |
| 20260509230823 | 55 | 159 | 0.0 | 0.0 | 0.00 | 0.41 | 0.41 | 94 | 1015.2 |
| 20260509230320 | 55 | 159 | 0.0 | 0.0 | 0.00 | 0.41 | 0.41 | 94 | 1015.2 |
| 20260509225814 | 55 | 159 | 0.0 | 0.0 | 0.00 | 0.41 | 0.41 | 94 | 1015.1 |
| 20260509225312 | 55 | 156 | 0.0 | 0.0 | 0.00 | 0.41 | 0.41 | 94 | 1015.1 |
| 20260509224808 | 55 | 123 | 1.0 | 2.0 | 0.00 | 0.41 | 0.41 | 94 | 1014.8 |
| 20260509224304 | 55 | 203 | 0.0 | 1.0 | 0.05 | 0.41 | 0.41 | 94 | 1015.1 |
| 20260509223801 | 55 | 132 | 2.0 | 2.0 | 0.17 | 0.41 | 0.41 | 94 | 1014.7 |
| 20260509223258 | 55 | 75 | 2.0 | 4.0 | 0.38 | 0.40 | 0.40 | 94 | 1015.1 |
| 20260509222755 | 55 | 124 | 3.0 | 4.0 | 0.38 | 0.38 | 0.38 | 94 | 1015.8 |
| 20260509222250 | 55 | 185 | 0.0 | 0.0 | 0.12 | 0.34 | 0.34 | 94 | 1016.2 |
| 20260509221746 | 56 | 180 | 0.0 | 0.0 | 0.00 | 0.32 | 0.32 | 94 | 1015.9 |
| 20260509221243 | 56 | 152 | 0.0 | 0.0 | 0.05 | 0.32 | 0.32 | 94 | 1015.6 |
| 20260509220738 | 56 | 139 | 1.0 | 1.0 | 0.17 | 0.32 | 0.32 | 94 | 1015.3 |
| 20260509220235 | 56 | 160 | 0.0 | 1.0 | 0.35 | 0.31 | 0.31 | 94 | 1015.6 |
| 20260509215730 | 56 | 150 | 0.0 | 0.0 | 0.24 | 0.29 | 0.29 | 94 | 1015.7 |
| 20260509215227 | 56 | 180 | 0.0 | 0.0 | 0.05 | 0.26 | 0.26 | 93 | 1015.9 |
| 20260509214725 | 56 | 192 | 1.0 | 1.0 | 0.00 | 0.25 | 0.25 | 93 | 1016.1 |
| 20260509214221 | 56 | 187 | 0.0 | 0.0 | 0.00 | 0.25 | 0.25 | 93 | 1015.5 |
| 20260509213718 | 56 | 117 | 2.0 | 3.0 | 0.00 | 0.25 | 0.25 | 93 | 1015.2 |
| 20260509213214 | 56 | 135 | 0.0 | 1.0 | 0.07 | 0.25 | 0.25 | 93 | 1015.7 |
| 20260509212712 | 56 | 160 | 0.0 | 0.0 | 0.07 | 0.25 | 0.25 | 93 | 1015.6 |
| 20260509212208 | 56 | 164 | 0.0 | 0.0 | 0.00 | 0.24 | 0.24 | 93 | 1015.9 |
| 20260509211704 | 56 | 129 | 1.0 | 1.0 | 0.00 | 0.24 | 0.24 | 93 | 1015.6 |
| 20260509211201 | 56 | 143 | 1.0 | 1.0 | 0.00 | 0.24 | 0.24 | 93 | 1015.7 |
| 20260509210658 | 56 | 181 | 0.0 | 0.0 | 0.07 | 0.24 | 0.24 | 93 | 1015.7 |
| 20260509210155 | 56 | 181 | 0.0 | 0.0 | 0.07 | 0.24 | 0.24 | 93 | 1015.8 |
| 20260509205650 | 56 | 182 | 0.0 | 0.0 | 0.05 | 0.23 | 0.23 | 93 | 1016.0 |
| 20260509205149 | 57 | 167 | 0.0 | 0.0 | 0.05 | 0.23 | 0.23 | 93 | 1015.9 |
| 20260509204647 | 56 | 178 | 0.0 | 0.0 | 0.07 | 0.22 | 0.22 | 93 | 1016.0 |
| 20260509204143 | 57 | 229 | 0.0 | 1.0 | 0.12 | 0.22 | 0.22 | 93 | 1016.0 |
| 20260509203639 | 56 | 245 | 1.0 | 1.0 | 0.05 | 0.21 | 0.21 | 93 | 1016.1 |
| 20260509203137 | 56 | 168 | 0.0 | 0.0 | 0.07 | 0.20 | 0.20 | 93 | 1016.1 |
| 20260509202638 | 56 | 168 | 0.0 | 0.0 | 0.07 | 0.20 | 0.20 | 93 | 1016.0 |
| 20260509202133 | 56 | 176 | 0.0 | 0.0 | 0.07 | 0.20 | 0.20 | 93 | 1016.1 |
| 20260509201628 | 56 | 156 | 0.0 | 0.0 | 0.00 | 0.19 | 0.19 | 93 | 1016.1 |
| 20260509201126 | 56 | 157 | 0.0 | 0.0 | 0.05 | 0.19 | 0.19 | 93 | 1016.1 |
| 20260509200621 | 56 | 171 | 0.0 | 0.0 | 0.05 | 0.19 | 0.19 | 93 | 1016.3 |
| 20260509200116 | 57 | 157 | 1.0 | 2.0 | 0.00 | 0.18 | 0.18 | 92 | 1016.3 |
| 20260509195612 | 57 | 187 | 0.0 | 0.0 | 0.00 | 0.18 | 0.18 | 93 | 1016.2 |
| 20260509195102 | 57 | 195 | 1.0 | 1.0 | 0.00 | 0.18 | 0.18 | 92 | 1015.6 |
| 20260509194601 | 57 | 166 | 0.0 | 0.0 | 0.00 | 0.18 | 0.18 | 92 | 1015.4 |
| 20260509194059 | 57 | 132 | 2.0 | 2.0 | 0.00 | 0.18 | 0.18 | 92 | 1015.1 |
| 20260509193554 | 57 | 149 | 2.0 | 2.0 | 0.07 | 0.18 | 0.18 | 92 | 1015.0 |
| 20260509193045 | 57 | 132 | 1.0 | 2.0 | 0.07 | 0.18 | 0.18 | 92 | 1015.7 |
| 20260509192542 | 57 | 208 | 1.0 | 1.0 | 0.05 | 0.17 | 0.17 | 92 | 1016.4 |
| 20260509192037 | 57 | 178 | 0.0 | 0.0 | 0.12 | 0.17 | 0.17 | 92 | 1016.1 |
| 20260509191537 | 57 | 153 | 0.0 | 0.0 | 0.12 | 0.16 | 0.16 | 92 | 1016.2 |
| 20260509191033 | 57 | 173 | 0.0 | 0.0 | 0.12 | 0.15 | 0.15 | 91 | 1016.3 |
| 20260509190530 | 57 | 192 | 0.0 | 1.0 | 0.07 | 0.14 | 0.14 | 91 | 1016.6 |
| 20260509190028 | 57 | 192 | 1.0 | 1.0 | 0.05 | 0.13 | 0.13 | 91 | 1016.4 |
| 20260509185525 | 57 | 180 | 0.0 | 0.0 | 0.19 | 0.13 | 0.13 | 90 | 1016.0 |
| 20260509185021 | 57 | 151 | 1.0 | 1.0 | 0.50 | 0.12 | 0.12 | 89 | 1016.0 |
| 20260509184520 | 57 | 193 | 1.0 | 1.0 | 0.40 | 0.10 | 0.10 | 88 | 1016.2 |
| 20260509184010 | 57 | 264 | 2.0 | 2.0 | 0.05 | 0.04 | 0.04 | 87 | 1016.5 |
| 20260509183505 | 58 | 302 | 3.0 | 3.0 | 0.00 | 0.03 | 0.03 | 86 | 1016.5 |
| 20260509183002 | 58 | 183 | 0.0 | 0.0 | 0.07 | 0.03 | 0.03 | 86 | 1016.3 |
| 20260509182458 | 57 | 161 | 0.0 | 0.0 | 0.19 | 0.03 | 0.03 | 84 | 1016.3 |
| 20260509181955 | 58 | 193 | 0.0 | 0.0 | 0.12 | 0.02 | 0.02 | 83 | 1016.0 |
| 20260509181454 | 58 | 161 | 0.0 | 1.0 | 0.00 | 0.00 | 0.00 | 81 | 1015.9 |
| 20260509180950 | 57 | 171 | 0.0 | 0.0 | 0.00 | 0.00 | 0.00 | 80 | 1015.5 |
| 20260509180445 | 57 | 178 | 1.0 | 1.0 | 0.00 | 0.00 | 0.00 | 80 | 1015.4 |
| 20260509175942 | 58 | 131 | 2.0 | 3.0 | 0.00 | 0.00 | 0.00 | 78 | 1015.5 |
| 20260509175439 | 58 | 166 | 2.0 | 2.0 | 0.00 | 0.00 | 0.00 | 77 | 1015.4 |
| 20260509174930 | 59 | 138 | 1.0 | 2.0 | 0.00 | 0.00 | 0.00 | 76 | 1015.5 |
| 20260509174426 | 59 | 157 | 1.0 | 2.0 | 0.00 | 0.00 | 0.00 | 76 | 1015.6 |
| 20260509173921 | 59 | 136 | 3.0 | 4.0 | 0.00 | 0.00 | 0.00 | 74 | 1015.6 |
| 20260509173415 | 60 | 138 | 2.0 | 3.0 | 0.00 | 0.00 | 0.00 | 73 | 1015.6 |
| 20260509172912 | 61 | 158 | 0.0 | 0.0 | 0.00 | 0.00 | 0.00 | 72 | 1015.4 |
| 20260509172409 | 62 | 124 | 4.0 | 6.0 | 0.00 | 0.00 | 0.00 | 70 | 1015.4 |
| 20260509171905 | 62 | 124 | 4.0 | 6.0 | 0.00 | 0.00 | 0.00 | 70 | 1015.4 |